Location: Apalco
(33.3585°N, 93.4602°W)
Time: 03:14:56
(UTC+00:00)

Envisat - Pass Details

Date: 04 October 2021
Orbit: 764 x 766 km, 98.2° (Epoch: 23 October)

Event Time Altitude Azimuth Distance (km) Brightness Sun altitude
Rises 10:07:14 0° 35° (NE) 3,232 6.9 -26.4°
Reaches altitude 10° 10:10:30 10° 57° (ENE) 2,301 6.4 -25.7°
Maximum altitude 10:13:29 16° 93° (E) 1,932 5.9 -25.1°
Drops below altitude 10° 10:16:28 10° 130° (SE) 2,293 5.9 -24.5°
Sets 10:19:41 0° 152° (SSE) 3,213 6.4 -23.9°
